Skip to main content.
Our real time weather data display below is updated continuously via our 24/7 live data feed.
 TIME   TEMPERATURE   WINDSPEED   DIRECTION   HUMIDITY   BAROMETER   RAINFALL 
18:31 32.0°C (89.6°F) 18.5 kmh (11.5 mph) WNW 52% 1010.8hPa (29.85 inHg) 0.0mm (0.00 in.)
17:31 33.0°C (91.4 °F) 20.4 kmh (12.7 mph) NW 46% 1011.9hPa (29.88 inHg) 0.0mm (0.00 in.)
16:31 32.0°C (89.6 °F) 18.5 kmh (11.5 mph) WNW 59% 1011.9hPa (29.88 inHg) 0.0mm (0.00 in.)
15:31 34.0°C (93.2 °F) 16.7 kmh (10.4 mph) WNW 52% 1011.9hPa (29.88 inHg) 0.0mm (0.00 in.)
14:31 34.0°C (93.2 °F) 16.7 kmh (10.4 mph) SW 49% 1012.9hPa (29.91 inHg) 0.0mm (0.00 in.)
13:31 36.0°C (96.8 °F) 18.5 kmh (11.5 mph) SW 41% 1012.9hPa (29.91 inHg) 0.0mm (0.00 in.)
12:31 37.0°C (98.6 °F) 13.0 kmh (8.1 mph) W 37% 1013.9hPa (29.94 inHg) 0.0mm (0.00 in.)
11:31 35.0°C (95.0 °F) 11.1 kmh (6.9 mph) W 41% 1013.9hPa (29.94 inHg) 0.0mm (0.00 in.)
10:31 34.0°C (93.2 °F) 14.8 kmh (9.2 mph) WSW 43% 1012.9hPa (29.91 inHg) 0.0mm (0.00 in.)
9:31 32.0°C (89.6 °F) 9.3 kmh (5.8 mph) SW 59% 1012.9hPa (29.91 inHg) 0.0mm (0.00 in.)
8:31 30.0°C (86.0 °F) 5.6 kmh (3.5 mph) NNW 70% 1012.9hPa (29.91 inHg) 0.0mm (0.00 in.)
7:31 28.0°C (82.4 °F) 5.6 kmh (3.5 mph) NNW 78% 1012.9hPa (29.91 inHg) 0.0mm (0.00 in.)
6:31 28.0°C (82.4 °F) 14.8 kmh (9.2 mph) W 78% 1012.9hPa (29.91 inHg) 0.0mm (0.00 in.)
5:31 28.0°C (82.4 °F) 22.2 kmh (13.8 mph) SW 74% 1011.9hPa (29.88 inHg) 0.0mm (0.00 in.)
4:31 29.0°C (84.2 °F) 24.1 kmh (15.0 mph) S 65% 1011.9hPa (29.88 inHg) 0.0mm (0.00 in.)
3:31 29.0°C (84.2 °F) 20.4 kmh (12.7 mph) S 74% 1012.9hPa (29.91 inHg) 0.0mm (0.00 in.)
2:31 29.0°C (84.2 °F) 20.4 kmh (12.7 mph) S 70% 1012.9hPa (29.91 inHg) 0.0mm (0.00 in.)
1:31 29.0°C (84.2 °F) 24.1 kmh (15.0 mph) SSE 70% 1012.9hPa (29.91 inHg) 0.0mm (0.00 in.)
0:31 29.0°C (84.2 °F) 20.4 kmh (12.7 mph) SSE 70% 1013.9hPa (29.94 inHg) 0.0mm (0.00 in.)
23:30 28.0°C (82.4 °F) 9.3 kmh (5.8 mph) S 78% 1014.9hPa (29.97 inHg) 0.0mm (0.00 in.)
22:30 28.0°C (82.4 °F) 14.8 kmh (9.2 mph) SE 83% 1013.9hPa (29.94 inHg) 0.0mm (0.00 in.)
21:30 29.0°C (84.2 °F) 13.0 kmh (8.1 mph) SSE 79% 1013.9hPa (29.94 inHg) 0.0mm (0.00 in.)
20:30 29.0°C (84.2 °F) 14.8 kmh (9.2 mph) SSE 79% 1013.9hPa (29.94 inHg) 0.0mm (0.00 in.)
19:30 32.0°C (89.6 °F) 13.0 kmh (8.1 mph) SSE 62% 1013.9hPa (29.94 inHg) 0.0mm (0.00 in.)